Weather History for Yoho Park, BC

Change the Weather History Date:

Tuesday, December 4, 2012

  Actual Average Record
Temperature  
Mean Temperature 24 °F -  
Max Temperature 29 °F - - ()
Min Temperature 19 °F - - ()
Degree Days  
Heating Degree Days 41    
Moisture  
Dew Point 24 °F    
Average Humidity 95    
Maximum Humidity 97    
Minimum Humidity 90    
Precipitation  
Precipitation 0.00 in - - ()
Sea Level Pressure  
Sea Level Pressure 29.75 in    
Wind  
Wind Speed 6 mph ()    
Max Wind Speed 22 mph    
Max Gust Speed -    
T = Trace of Precipitation, MM = Missing Value Source: Averaged Metar Reports

Daily Weather History Graph

Daily Weather History Graph

Search for Another Location

Airport:

Trip Planner

Search our weather history database for the weather conditions in past years. The results will help you decide how hot, cold, wet, or windy it might be!

Date:

Astronomy

Dec. 04, 2012 Rise Set
Actual Time 8:33 AM MST 4:38 PM MST
Civil Twilight 7:53 AM MST 5:17 PM MST
Nautical Twilight 7:11 AM MST 6:00 PM MST
Astronomical Twilight 6:31 AM MST 6:40 PM MST
Moon 10:58 PM MST (12/4) 12:04 PM MST (12/4)
Length of Visible Light 9h 23m
Length of Day
8h 04m
Waning Gibbous, 69% of the Moon is Illuminated
Dec 4
Waning Gibbous
Dec 6
Last Quarter
Dec 13
New
Dec 19
First Quarter
Dec 28
Full

Hourly Weather History & Observations

Time (MST) Temp. Windchill Dew Point Humidity Pressure Visibility Wind Dir Wind Speed Gust Speed Precip Events Conditions
12:00 AM 22.8 °F - 21.7 °F 96% 30.06 in - WNW 2.3 mph - N/A   Unknown
1:00 AM 22.5 °F - 21.4 °F 96% 30.04 in - WNW 1.2 mph - N/A   Unknown
2:00 AM 22.3 °F - 21.2 °F 96% 30.00 in - Calm Calm - N/A   Unknown
3:00 AM 21.7 °F - 20.5 °F 95% 29.97 in - NE 1.2 mph - N/A   Unknown
4:00 AM 20.8 °F - 19.6 °F 95% 29.94 in - NE 2.3 mph - N/A   Unknown
5:00 AM 20 °F - 19 °F 92% 29.91 in - East 2.3 mph - -  
5:00 AM 20.1 °F - 18.7 °F 94% 29.91 in - East 2.3 mph - N/A   Unknown
6:00 AM 20.3 °F - 18.9 °F 94% 29.88 in - ENE 2.3 mph - N/A   Unknown
7:00 AM 19.9 °F - 18.5 °F 94% 29.86 in - ENE 1.2 mph - N/A   Unknown
8:00 AM 20.3 °F - 18.9 °F 94% 29.82 in - ESE 2.3 mph - N/A   Unknown
9:00 AM 21.0 °F - 19.8 °F 95% 29.80 in - Calm Calm - N/A   Unknown
10:00 AM 22.1 °F - 20.7 °F 94% 29.76 in - NE 1.2 mph - N/A   Unknown
11:00 AM 23 °F - 21 °F 90% 29.72 in - NE 2.3 mph - -  
11:00 AM 22.6 °F - 21.2 °F 94% 29.72 in - NE 2.3 mph - N/A   Unknown
12:00 PM 24.3 °F - 22.6 °F 94% 29.68 in - WNW 2.3 mph - N/A   Unknown
1:00 PM 26.6 °F 13.4 °F 25.5 °F 96% 29.64 in - West 18.4 mph - N/A   Unknown
2:00 PM 28.2 °F 15.5 °F 27.3 °F 96% 29.61 in - West 18.4 mph - N/A   Unknown
3:00 PM 29.3 °F 16.2 °F 28.4 °F 96% 29.61 in - West 20.7 mph - N/A   Unknown
4:00 PM 29.5 °F 16.2 °F 28.6 °F 96% 29.61 in - West 21.9 mph - N/A   Unknown
5:00 PM 29 °F - 28 °F 97% 29.62 in - West 19.6 mph - -  
5:00 PM 29.5 °F 16.8 °F 28.4 °F 96% 29.62 in - West 19.6 mph - N/A   Unknown
6:00 PM 29.7 °F 17.8 °F 28.8 °F 96% 29.61 in - West 17.3 mph - N/A   Unknown
7:00 PM 29.5 °F 18.0 °F 28.6 °F 96% 29.61 in - West 16.1 mph - N/A   Unknown
8:00 PM 29.7 °F 17.8 °F 28.6 °F 96% 29.61 in - West 17.3 mph - N/A   Unknown
9:00 PM 29.3 °F 17.0 °F 28.0 °F 95% 29.60 in - WSW 18.4 mph - N/A   Unknown
10:00 PM 28.8 °F 17.0 °F 27.5 °F 95% 29.58 in - West 16.1 mph - N/A   Unknown
11:00 PM 29 °F - 27 °F 91% 29.57 in - WSW 15.0 mph - -  
11:00 PM 28.6 °F 17.2 °F 27.3 °F 95% 29.57 in - WSW 15.0 mph - N/A   Unknown